MB7UEL Weather Reports


time (UTC)temp
C
wind
direction
speed
KPH
gust
KPH
rain 1hr
cm
rain 24hr
cm
rain mn
cm
humidity
%
barometer
mb
20260508140505 11 230 12.9 14.5 0.00 0.00 0.00 1018.0
20260508133506 11 247 14.5 17.7 0.00 0.00 0.00 1018.0
20260508130505 11 247 14.5 17.7 0.00 0.00 0.00 1018.0
20260508123506 11 247 14.5 17.7 0.00 0.00 0.00 1018.0
20260508120506 11 264 16.1 19.3 0.00 0.00 0.00 1018.0
20260508113506 10 264 16.1 19.3 0.00 0.00 0.00 1018.0
20260508110506 10 264 16.1 19.3 0.00 0.00 0.00 1017.0
20260508103506 10 264 16.1 19.3 0.00 0.00 0.00 1018.0
20260508100506 10 257 14.5 17.7 0.00 0.00 0.00 1017.0
20260508093505 10 258 14.5 17.7 0.00 0.00 0.00 1017.0
20260508090505 10 258 14.5 17.7 0.00 0.00 0.00 1017.0
20260508083505 10 258 14.5 17.7 0.00 0.00 0.00 1017.0
20260508080505 10 241 19.3 22.5 0.00 0.00 0.00 1017.0
20260508073505 9 231 19.3 24.1 0.00 0.00 0.00 1016.0
20260508070505 9 231 19.3 24.1 0.00 0.00 0.00 1016.0
20260508063505 9 228 19.3 24.1 0.00 0.00 0.00 1015.0
20260508060505 9 228 19.3 24.1 0.00 0.00 0.00 1015.0
20260508053506 9 230 20.9 27.4 0.00 0.00 0.00 1014.0
20260508050506 9 230 20.9 27.4 0.00 0.00 0.00 1014.0
20260508043506 9 220 20.9 27.4 0.00 0.00 0.00 1014.0
20260508040506 9 220 20.9 27.4 0.00 0.00 0.00 1014.0
20260508033506 9 220 20.9 27.4 0.00 0.00 0.00 1014.0
20260508030506 9 207 22.5 30.6 0.00 0.00 0.00 1014.0
20260508023506 9 207 24.1 30.6 0.00 0.00 0.00 1014.0
20260508020506 9 207 24.1 30.6 0.00 0.00 0.00 1014.0
20260508013505 9 203 22.5 29.0 0.00 0.00 0.00 1015.0
20260508010505 9 203 22.5 29.0 0.00 0.00 0.00 1014.0
20260508003505 10 200 20.9 27.4 0.00 0.00 0.00 1014.0
20260508000505 9 201 20.9 27.4 0.00 0.00 0.00 1014.0
20260507233505 10 196 20.9 25.7 0.00 0.00 0.00 1014.0
20260507230505 10 196 20.9 25.7 0.00 0.00 0.00 1014.0
20260507223506 10 198 19.3 24.1 0.00 0.00 0.00 1014.0
20260507220506 10 198 19.3 24.1 0.00 0.00 0.00 1014.0
20260507213506 10 199 19.3 24.1 0.00 0.00 0.00 1014.0
20260507210506 10 199 19.3 24.1 0.00 0.00 0.00 1014.0
20260507203506 11 200 19.3 24.1 0.00 0.00 0.00 1014.0
20260507200506 11 200 19.3 24.1 0.00 0.00 0.00 1014.0
20260507193506 11 204 20.9 24.1 0.00 0.00 0.00 1014.0
20260507190506 11 204 20.9 24.1 0.00 0.00 0.00 1013.0
20260507183506 11 201 20.9 24.1 0.00 0.00 0.00 1013.0
20260507180506 11 201 20.9 24.1 0.00 0.00 0.00 1013.0
20260507173505 12 214 20.9 24.1 0.00 0.00 0.00 1013.0
20260507170506 12 214 20.9 24.1 0.00 0.00 0.00 1013.0
20260507163505 11 210 14.5 17.7 0.00 0.00 0.00 1013.0
20260507160505 11 210 14.5 17.7 0.00 0.00 0.00 1013.0
20260507153505 11 210 16.1 19.3 0.00 0.00 0.00 1014.0
20260507150505 11 210 16.1 19.3 0.00 0.00 0.00 1013.0
20260507143505 11 206 16.1 19.3 0.00 0.00 0.00 1014.0